Overview Statistics Trail Chart Weather Telemetry Raw packets
 

This is the latest recevied weather packets stored in our database for station/object K8WEH. If no packets are shown the sender has not sent any weather packets the latest 10 day(s).

<< 112 113 114 115 116 >>
Time Temp. Humidity Pressure Rain* Wind** Luminosity Snow
1787778053 26.11° C 58% 1016.2 hPa 0 mm - - -
1787777744 26.11° C 61% 1016.2 hPa 0 mm - - -
1787777441 26.67° C 55% 1016.1 hPa 0 mm - - -
1787777145 26.67° C 56% 1016.1 hPa 0 mm - - -
1787776841 26.67° C 54% 1016.1 hPa 0 mm - - -
1787776537 26.67° C 55% 1016.3 hPa 0 mm - - -
1787776236 27.22° C 54% 1016.4 hPa 0 mm - - -
1787775934 27.22° C 55% 1016.1 hPa 0 mm - - -
1787775634 27.22° C 56% 1016.3 hPa 0 mm - - -
1787775347 27.22° C 60% 1016.5 hPa 0 mm - - -
1787775029 27.22° C 61% 1016.5 hPa 0 mm - - -
1787774728 27.22° C 55% 1016.7 hPa 0 mm - - -
1787774427 27.22° C 52% 1016.7 hPa 0 mm - - -
1787774126 27.22° C 58% 1016.8 hPa 0 mm - - -
1787773823 27.22° C 59% 1016.7 hPa 0 mm - - -
1787773523 27.78° C 58% 1016.8 hPa 0 mm - - -
1787773221 27.78° C 56% 1016.7 hPa 0 mm - - -
1787772919 27.22° C 58% 1016.8 hPa 0 mm - - -
1787772317 27.22° C 64% 1016.8 hPa 0 mm - - -
1787772015 27.22° C 60% 1016.9 hPa 0 mm - - -
1787771713 27.22° C 59% 1016.9 hPa 0 mm - - -
1787771412 27.22° C 56% 1016.9 hPa 0 mm - - -
1787771111 27.78° C 57% 1017 hPa 0 mm - - -
1787770809 27.78° C 55% 1017.2 hPa 0 mm - - -
1787770508 27.78° C 58% 1017.3 hPa 0 mm - - -

* Rain latest hour (hover to see other rain measurements)
** Current wind speed in m/s (hover to see current wind gust speed)